| time (UTC) | temp C | wind direction | speed KPH | gust KPH | rain 1hr cm | rain 24hr cm | rain mn cm | humidity % | barometer mb |
| 20260506094507 | 9 | 5 | 9.7 | 24.1 | 0.00 | 2.57 | 0.33 | 92 | 1010.4 |
| 20260506093006 | 9 | 10 | 12.9 | 20.9 | 0.00 | 2.57 | 0.33 | 93 | 1010.3 |
| 20260506091508 | 9 | 355 | 8.0 | 20.9 | 0.00 | 2.57 | 0.33 | 94 | 1010.2 |
| 20260506090004 | 8 | 303 | 14.5 | 19.3 | 0.00 | 2.57 | 0.33 | 94 | 1010.1 |
| 20260506084503 | 8 | 344 | 9.7 | 22.5 | 0.00 | 2.67 | 0.33 | 95 | 1009.9 |
| 20260506083105 | 8 | 355 | 11.3 | 17.7 | 0.00 | 2.67 | 0.33 | 95 | 1009.7 |
| 20260506081521 | 8 | 317 | 8.0 | 22.5 | 0.00 | 2.67 | 0.33 | 96 | 1009.5 |
| 20260506073014 | 8 | 344 | 14.5 | 22.5 | 0.00 | 2.74 | 0.33 | 96 | 1009.1 |
| 20260506071510 | 8 | 348 | 8.0 | 19.3 | 0.03 | 2.74 | 0.33 | 96 | 1009.0 |
| 20260506061506 | 8 | 330 | 9.7 | 20.9 | 0.00 | 2.72 | 0.30 | 96 | 1008.5 |
| 20260506044511 | 8 | 300 | 11.3 | 20.9 | 0.05 | 2.69 | 0.28 | 96 | 1007.7 |
| 20260506043013 | 8 | 305 | 8.0 | 19.3 | 0.05 | 2.69 | 0.25 | 96 | 1007.6 |
| 20260506041508 | 8 | 309 | 8.0 | 16.1 | 0.05 | 2.69 | 0.25 | 96 | 1007.6 |
| 20260506040019 | 8 | 321 | 9.7 | 20.9 | 0.05 | 2.67 | 0.23 | 96 | 1007.6 |
| 20260506034505 | 8 | 309 | 11.3 | 22.5 | 0.05 | 2.67 | 0.23 | 96 | 1007.6 |
| 20260506033104 | 8 | 342 | 6.4 | 22.5 | 0.05 | 2.64 | 0.23 | 96 | 1007.6 |
| 20260506031536 | 8 | 350 | 11.3 | 19.3 | 0.05 | 2.64 | 0.23 | 96 | 1007.6 |
| 20260506030013 | 8 | 319 | 6.4 | 14.5 | 0.05 | 2.62 | 0.20 | 96 | 1007.6 |
| 20260506024518 | 8 | 342 | 4.8 | 14.5 | 0.05 | 2.59 | 0.18 | 96 | 1007.6 |
| 20260506023011 | 8 | 336 | 6.4 | 16.1 | 0.05 | 2.59 | 0.18 | 96 | 1007.6 |
| 20260506021512 | 9 | 360 | 9.7 | 19.3 | 0.05 | 2.59 | 0.15 | 96 | 1007.7 |
| 20260506020006 | 9 | 326 | 6.4 | 19.3 | 0.05 | 2.59 | 0.15 | 96 | 1007.6 |
| 20260506014510 | 9 | 310 | 8.0 | 16.1 | 0.05 | 2.57 | 0.15 | 97 | 1007.6 |
| 20260506013012 | 10 | 315 | 6.4 | 16.1 | 0.05 | 2.54 | 0.13 | 97 | 1007.5 |
| 20260506011512 | 10 | 302 | 9.7 | 19.3 | 0.05 | 2.54 | 0.13 | 96 | 1007.6 |
| 20260506010030 | 10 | 317 | 9.7 | 19.3 | 0.05 | 2.54 | 0.13 | 97 | 1007.5 |
| 20260506004511 | 10 | 325 | 6.4 | 12.9 | 0.05 | 2.51 | 0.10 | 97 | 1007.6 |
| 20260506003008 | 10 | 298 | 6.4 | 14.5 | 0.03 | 2.49 | 0.08 | 97 | 1007.7 |
| 20260506001505 | 10 | 312 | 6.4 | 12.9 | 0.03 | 2.49 | 0.08 | 96 | 1007.6 |
| 20260506000013 | 10 | 310 | 3.2 | 8.0 | 0.03 | 2.49 | 0.08 | 96 | 1007.7 |
| 20260505234525 | 10 | 309 | 4.8 | 12.9 | 0.00 | 2.49 | 0.05 | 96 | 1007.8 |
| 20260505233017 | 10 | 313 | 8.0 | 14.5 | 0.03 | 2.49 | 0.05 | 96 | 1007.8 |
| 20260505231520 | 10 | 300 | 8.0 | 16.1 | 0.05 | 2.49 | 0.05 | 96 | 1007.8 |
| 20260505230022 | 10 | 304 | 6.4 | 14.5 | 0.05 | 2.49 | 0.05 | 96 | 1007.8 |
| 20260505224518 | 10 | 321 | 4.8 | 9.7 | 0.10 | 2.49 | 0.05 | 96 | 1007.8 |
| 20260505223017 | 10 | 308 | 8.0 | 20.9 | 0.10 | 2.46 | 0.05 | 97 | 1007.7 |
| 20260505221529 | 10 | 306 | 9.7 | 22.5 | 0.13 | 2.44 | 0.03 | 96 | 1007.7 |
| 20260505220016 | 10 | 311 | 12.9 | 24.1 | 0.15 | 2.41 | 0.00 | 96 | 1007.8 |
| 20260505214546 | 10 | 309 | 12.9 | 20.9 | 0.13 | 2.39 | 2.39 | 96 | 1007.7 |
| 20260505213018 | 10 | 275 | 9.7 | 19.3 | 0.18 | 2.36 | 2.36 | 96 | 1007.8 |
| 20260505211606 | 10 | 289 | 9.7 | 17.7 | 0.18 | 2.31 | 2.31 | 96 | 1008.0 |
| 20260505210004 | 10 | 294 | 11.3 | 17.7 | 0.23 | 2.29 | 2.29 | 96 | 1008.1 |
| 20260505204505 | 10 | 309 | 8.0 | 17.7 | 0.23 | 2.29 | 2.26 | 96 | 1008.2 |
| 20260505203005 | 10 | 305 | 9.7 | 16.1 | 0.23 | 2.21 | 2.18 | 97 | 1008.1 |
| 20260505201517 | 10 | 290 | 4.8 | 12.9 | 0.30 | 2.16 | 2.13 | 97 | 1008.0 |
| 20260505200033 | 10 | 295 | 3.2 | 11.3 | 0.30 | 2.08 | 2.06 | 97 | 1007.9 |
| 20260505194518 | 10 | 301 | 1.6 | 14.5 | 0.33 | 2.11 | 2.03 | 97 | 1007.7 |
| 20260505193058 | 10 | 303 | 4.8 | 14.5 | 0.28 | 2.03 | 1.93 | 96 | 1007.5 |
| 20260505191511 | 10 | 291 | 6.4 | 12.9 | 0.23 | 1.93 | 1.83 | 96 | 1007.4 |
| 20260505190009 | 10 | 297 | 4.8 | 16.1 | 0.18 | 1.85 | 1.75 | 96 | 1007.3 |
| 20260505184509 | 10 | 306 | 8.0 | 16.1 | 0.18 | 1.80 | 1.70 | 96 | 1007.3 |
| 20260505183008 | 10 | 304 | 8.0 | 14.5 | 0.20 | 1.75 | 1.65 | 96 | 1007.0 |
| 20260505181507 | 10 | 306 | 9.7 | 17.7 | 0.18 | 1.73 | 1.63 | 96 | 1006.9 |
| 20260505180009 | 10 | 308 | 12.9 | 19.3 | 0.18 | 1.68 | 1.57 | 96 | 1007.0 |
| 20260505174517 | 10 | 305 | 8.0 | 16.1 | 0.15 | 1.63 | 1.52 | 96 | 1007.0 |
| 20260505173019 | 10 | 305 | 9.7 | 14.5 | 0.08 | 1.55 | 1.42 | 96 | 1007.1 |
| 20260505171522 | 10 | 314 | 9.7 | 16.1 | 0.08 | 1.55 | 1.42 | 96 | 1007.0 |
| 20260505170019 | 10 | 315 | 8.0 | 17.7 | 0.05 | 1.50 | 1.40 | 96 | 1007.1 |
| 20260505164512 | 11 | 303 | 8.0 | 16.1 | 0.05 | 1.65 | 1.37 | 96 | 1007.2 |
| 20260505163051 | 11 | 310 | 11.3 | 20.9 | 0.08 | 1.65 | 1.37 | 96 | 1007.1 |
| 20260505161507 | 11 | 325 | 6.4 | 17.7 | 0.10 | 1.63 | 1.37 | 96 | 1007.1 |
| 20260505153004 | 11 | 300 | 8.0 | 24.1 | 0.20 | 1.63 | 1.30 | 96 | 1006.8 |
| 20260505151519 | 11 | 325 | 12.9 | 22.5 | 0.23 | 1.57 | 1.27 | 96 | 1006.8 |
| 20260505124612 | 11 | 355 | 8.0 | 24.1 | 0.13 | 1.17 | 0.61 | 96 | 1006.7 |
| 20260505123018 | 11 | 308 | 11.3 | 20.9 | 0.13 | 1.12 | 0.56 | 96 | 1006.8 |
| 20260505121517 | 11 | 28 | 11.3 | 24.1 | 0.10 | 1.09 | 0.51 | 96 | 1006.7 |
| 20260505120017 | 11 | 347 | 12.9 | 29.0 | 0.10 | 1.07 | 0.51 | 96 | 1006.8 |
| 20260505114513 | 12 | 327 | 14.5 | 24.1 | 0.10 | 1.17 | 0.46 | 96 | 1006.8 |
| 20260505113012 | 11 | 335 | 9.7 | 20.9 | 0.10 | 1.14 | 0.43 | 96 | 1006.8 |
| 20260505111513 | 11 | 318 | 8.0 | 20.9 | 0.10 | 1.12 | 0.43 | 96 | 1007.0 |
| 20260505101504 | 12 | 15 | 11.3 | 20.9 | 0.13 | 1.02 | 0.33 | 96 | 1007.3 |
| 20260505100104 | 12 | 10 | 11.3 | 20.9 | 0.13 | 0.99 | 0.30 | 96 | 1007.4 |